Regional Weather Roundup
Issued by NWS Cleveland, OH

Home | Current Version | Previous Version | Text Only | Print | Product List | Glossary On
Versions: 1 2 3 4 5 6 7 8 9 10 11 12 13 14 15 16 17 18 19 20 21 22 23 24 25 26 27 28 29 30 31 32 33 34 35 36 37 38 39 40 41 42 43 44 45 46 47 48 49 50
000
ASUS41 KCLE 222110
RWRCLE
OHIO REGIONAL WEATHER ROUNDUP
NATIONAL WEATHER SERVICE WILMINGTON, OH
500 PM EDT WED OCT 22 2014

NOTE: "FAIR" INDICATES FEW OR NO CLOUDS BELOW 12,000 FEET WITH NO
SIGNIFICANT WEATHER AND/OR OBSTRUCTIONS TO VISIBILITY.

OHZ001>008-015>018-024>027-034-035-043-044-222200-
   NORTHWEST OHIO

CITY           SKY/WX    TMP DP  RH WIND       PRES   REMARKS
DEFIANCE       CLOUDY    50  40  68 N7        30.31F
FINDLAY        PTSUNNY   52  40  63 N7        30.28S
TOLEDO EXPRESS MOSUNNY   52  40  63 NW5       30.28S
TOLEDO METCALF PTSUNNY   54  40  59 NW7       30.29S
LIMA           CLOUDY    49  40  71 N6        30.29S
$$

OHZ009>014-019>023-028>033-038-089-222200-
   NORTHEAST OHIO

CITY           SKY/WX    TMP DP  RH WIND       PRES   REMARKS
CLE-HOPKINS    CLOUDY    51  41  68 N8        30.27S
CLE-LAKEFRONT  CLOUDY    52  42  69 N13       30.24S
CUY CO. ARPT   CLOUDY    52  45  76 NE12      30.25S
LORAIN-ELYRIA  CLOUDY    51  42  71 N7        30.26S
ASHTABULA      CLOUDY    49  41  74 VRB6      30.24S
AKRON-CANTON   CLOUDY    50  41  71 N10       30.22S
WOOSTER        CLOUDY    49  41  74 N8        30.25R
MANSFIELD      CLOUDY    49  41  74 N10       30.25S
YOUNGSTOWN     CLOUDY    48  41  76 N10       30.21S
$$

OHZ042-051>053-060>062-070>072-077>081-222200-
  SOUTHWEST OHIO

CITY           SKY/WX    TMP DP  RH WIND       PRES   REMARKS
CINC-COVINGTON CLOUDY    53  39  59 NE8       30.26F
CINC-LUNKEN    CLOUDY    53  42  66 NE8       30.28F
HAMILTON       PTSUNNY   53  42  66 E6        30.28F
DAYTON         CLOUDY    51  41  68 N8        30.29R
WRIGHT-PAT AFB CLOUDY    51  42  70 N9        30.27S
DAYTON GENERAL CLOUDY    51  41  68 N6        30.27S
WILMINGTON     CLOUDY    50  41  71 N10       30.26R
$$

OHZ036-037-039>041-045>050-054>059-063>069-073>076-082>088-222200-
  CENTRAL AND SOUTHEAST OHIO

CITY           SKY/WX    TMP DP  RH WIND       PRES   REMARKS
COLUMBUS       CLOUDY    50  41  71 N9        30.25S
OSU AIRPORT    CLOUDY    50  41  71 N12       30.26S
BOLTON FIELD   CLOUDY    48  43  81 N9        30.26S
RICKENBACK AFB CLOUDY    50  41  72 N8        30.25S
NEWARK         CLOUDY    50  40  68 N7        30.24S
MARION         CLOUDY    50  41  71 N13       30.26F
LANCASTER      CLOUDY    50  41  71 N6        30.25S
ZANESVILLE     CLOUDY    49  41  74 NW8       30.22S
NEW PHILLY     CLOUDY    52  41  66 N10       30.22S
$$



USA.gov is the U.S. government's official web portal to all federal, state and local government web resources and services.